www.pogodaiklimat.ru

Погода и климат >> Архив погоды >> Россия >> Иркутская область >> Нижнеудинск


АРХИВ ПОГОДЫ в Нижнеудинске

Время (UTC), дата Ветер
(напр.,м/с)
 
Видим.   Явления Облачность Т
(С)
Тd
(С)
f
(%)
Тe
(С)
Тes
(С)
Комфортность P
(гПа)
Po
(гПа)
Тmin
(С)
Tmax
(С)
R
(мм)
R24
(мм)
S
(см)
15 15.09 штиль 0 н/о 10/6 600 м
[Cb cap Ci sp]
+7.1 +6.1 93 +6 +6 1013.3 964.1
18 15.09 В 1 н/о в посл. час ливневой дождь 10/10 600 м
[Cb cap]
+6.7 +6.5 99 +5 +5 1012.6 963.4
21 15.09 СЗ 1 н/о слаб. ливневой дождь 10/10 600 м
[Cb cap]
+6.0 +5.7 98 +5 +5 1015.3 965.8
00 16.09 СЗ 1 20 км в посл. час ливневой дождь 10/10 600 м
[Cb cap]
+5.1 +4.3 95 +4 +4 1018.0 968.2 +5.1 6
03 16.09 СЗ 2 20 км 10/10 600 м
[Cb cap]
+6.5 +3.9 83 +4 +4 1020.0 970.4 +5.1
06 16.09 СЗ 2 50 км 9/8 600 м
[Cb cap Ci sp]
+8.7 +3.8 71 +7 +8 1020.9 971.6
09 16.09 СЗ 3 50 км 9/8 600 м
[Cb cap Ci fib]
+11.4 +3.0 56 +10 +10 1021.2 972.3
12 16.09 штиль 0 20 км 9/5 600 м
[Cb cap Ac trans]
+7.2 +4.3 82 +6 +6 1023.3 973.6 +11.4
15 16.09 В 1 н/о 10/6 600 м
[Cb cap Ac As]
+6.2 +4.6 89 +5 +5 1024.5 974.6
18 16.09 штиль 0 н/о 10/10 600 м
[Cb cap]
+6.1 +4.5 89 +5 +5 1024.3 974.4
21 16.09 штиль 0 н/о 9/4 1000 м
[Sc Ac trans]
+5.8 +4.1 89 +5 +5 1024.3 974.3
00 17.09 ЮЗ 1 50 км 3/0
[Ci fib]
+2.6 +2.5 99 +1 +1 1025.0 974.4 +2.4
03 17.09 ЮВ 1 50 км ясно +12.7 +7.2 69 +13 +19 1022.4 973.7
06 17.09 ЮВ 2 50 км ясно +18.8 +5.8 43 +20 +27 1019.4 971.8
09 17.09 ЮВ 2 50 км ясно +20.5 +6.8 41 +22 +25 комфорт 1017.0 969.8
12 17.09 ЮВ 1 50 км 3/0
[Ci fib]
+13.3 +6.9 65 +14 +14 1017.6 969.2 +20.6
15 17.09 ЮВ 1 н/о ясно +11.3 +6.5 72 +11 +11 1018.0 969.3
18 17.09 штиль 0 н/о ясно +7.6 +6.4 92 +7 +7 1018.3 968.9
21 17.09 штиль 0 н/о ясно +4.0 +4.0 100 +3 +3 1019.2 969.2
00 18.09 штиль 0 50 км 10/4 1000 м
[Sc diur, vesp Ac trans Ci fib]
+4.1 +4.0 99 +3 +3 1020.0 969.9 +2.7
03 18.09 штиль 0 50 км 6/0
[Ac lent Ci fib]
+16.1 +8.8 62 +16 +21 1017.3 969.4
06 18.09 З 2 50 км 10/8 600 м
[Cb cap Ci fib]
+21.2 +7.2 40 +22 +23 комфорт 1015.2 968.2
09 18.09 СЗ 3
{11}
50 км {ливн. осадки} 10/10 600 м
[Cb cap]
+14.6 +10.7 77 +14 +14 1018.1 970.0
12 18.09 С 1 50 км {ливн. осадки} 9/8 600 м
[Cb cap Ci fib]
+11.6 +7.4 75 +12 +12 1020.7 971.9 +21.4 0.3
15 18.09 штиль 0 н/о 10/8 600 м
[Cb cap Ci fib]
+9.9 +7.2 83 +9 +9 1021.3 972.2
18 18.09 СВ 1 н/о в посл. час ливневой дождь 10/10 600 м
[Cb cap]
+8.7 +8.4 98 +8 +8 1021.6 972.3
21 18.09 В 1 н/о дымка 8/4 1000 м
[Sc diur, vesp Ci fib]
+7.0 +6.7 98 +6 +6 1022.3 972.6
00 19.09 штиль 0 20 км дымка 6/4 1000 м
[Sc diur, vesp Ci fib]
+4.7 +4.6 99 +3 +4 1023.2 973.1 +4.5 0.6
03 19.09 ЮВ 1 50 км 8/6 1000 м
[Sc diur, vesp Ac trans Ci fib]
+12.8 +9.2 79 +13 +15 1021.8 973.2
06 19.09 СВ 1 50 км 4/4 1000 м
[Cu med, cong]
+18.3 +7.9 51 +20 +25 1019.4 971.8
09 19.09 ЮВ 1 50 км 10/3 1000 м
[Cu med, cong Ci fib]
+19.5 +7.4 45 +21 +23 комфорт 1018.4 971.0
12 19.09 штиль 0 50 км 10/3 1000 м
[Sc diur, vesp Ci fib]
+11.9 +9.3 84 +11 +11 1019.5 970.8 +20.4
15 19.09 ЮВ 1 н/о 10/4 1000 м
[Sc diur, vesp Ci fib]
+10.2 +8.2 87 +10 +10 1020.0 971.0
18 19.09 Ю 1 н/о 10/8 1000 м
[Sc diur, vesp Ci fib]
+7.6 +6.7 94 +7 +7 1019.9 970.5
21 19.09 штиль 0 н/о 10/10 600 м
[Cb cap]
+7.5 +7.2 98 +6 +6 1019.9 970.5
00 20.09 штиль 0 50 км 6/4 1000 м
[Sc diur, vesp Ci fib]
+6.4 +6.3 99 +5 +5 1020.0 970.4 +6.2
03 20.09 ЮВ 1 50 км 3/0
[Ci fib]
+18.0 +9.6 58 +19 +24 1017.1 969.6
06 20.09 ЮВ 2 50 км 10/3 1000 м
[Sc diur, vesp Ac trans Ci fib]
+24.3 +8.4 36 +25 +27 комфорт 1013.2 966.8
09 20.09 ЮВ 2 50 км 4/0
[Ci fib]
+25.4 +8.7 35 +26 +28 жарко 1011.0 964.8
12 20.09 ЮВ 1 50 км 3/0
[Ci fib]
+18.0 +8.8 55 +19 +19 1011.6 964.3 +25.7
15 20.09 штиль 0 н/о 4/0
[Ci fib]
+11.1 +8.0 81 +11 +11 1013.7 965.1
18 20.09 В 1 н/о 6/0
[Ci fib]
+9.8 +7.6 86 +9 +9 1013.5 964.7
21 20.09 ЮВ 1 н/о 4/0
[Ci fib]
+5.5 +5.4 99 +4 +4 1014.7 965.1
00 21.09 СЗ 1 50 км 8/4 1000 м
[Cb cap Ac trans Ci fib]
+7.4 +6.3 93 +6 +6 1016.1 966.8 +4.6
03 21.09 В 1 50 км 9/6 600 м
[Cb cap Ci fib]
+17.9 +10.4 61 +19 +21 1014.8 967.4
06 21.09 З 2 50 км 8/5 600 м
[Cb cap Ci fib]
+23.6 +8.0 37 +24 +27 комфорт 1012.4 965.9
09 21.09 СЗ 5-12
{17}
50 км {ливн. осадки} 10/9 600 м
[Cb cap Ci fib]
+15.8 +6.3 53 +15 +15 1018.0 970.0
12 21.09 штиль 0
{12}
50 км {ливн. осадки} 10/10 600 м
[Cb cap]
+12.1 +6.6 69 +12 +12 1020.4 971.7 +24.3 0.3
15 21.09 СЗ 1 н/о 10/10 600 м
[Cb cap]
+8.8 +5.4 79 +8 +8 1023.6 974.2
18 21.09 штиль 0 н/о 6/6 600 м
[Cb cap]
+4.0 +3.8 99 +3 +3 1025.6 975.2
21 21.09 штиль 0 н/о 4/3 600 м
[Cb cap Ci fib]
+0.9 +0.8 99 -1 -1 1027.8 976.7
00 22.09 штиль 0 500 м туман 6/3 1000 м
[Sc diur, vesp Ci fib]
+0.2 +0.2 100 -1 -1 1029.3 978.1 +0.1
03 22.09 штиль 0 50 км 10/0
[Ci fib]
+11.3 +5.7 68 +11 +16 1026.9 977.7 -0.1
06 22.09 Ю 1 50 км {туман} 10/5 600 м
[Cb cap Ci fib]
+17.3 +2.9 38 +18 +21 1024.2 976.1
09 22.09 С 1 50 км 10/3 600 м
[Cb cap Ci sp]
+18.1 +4.0 39 +19 +21 1022.9 975.0

 

Местоположение метеостанции Нижнеудинск (Иркутская область, Россия): широта 54.88 долгота 99.03 высота над уровнем моря 411 м.

В архиве по умолчанию представлена погода в Нижнеудинске за последнюю неделю. Архивные данные за месяц целиком и за предыдущие месяцы, начиная с января 2011 года, Вы можете получить, выбрав интересующий диапазон дат из раскрывающегося списка и нажав кнопку "Ввод!".


*Определитесь, кто Вы:
робот инопланетянин человек

Внимание! Время в таблицах - всемирное. Для получения местного времени необходимо прибавить поправку, которая равна 8 ч.

Смотрите также архив погоды в соседних городах и на ближайших метеорологических станциях:

Погода в Нерое (Иркутская область, Россия) (90 км)
Погода в Хадаме (Иркутская область, Россия) (104 км)
Погода в Тулуне (Иркутская область, Россия) (106 км)
Погода в Тайшете (Иркутская область, Россия) (136 км)
Погода в Тангуе (Иркутская область, Россия) (137 км)
Погода в Алыгджере (Иркутская область, Россия) (149 км)
Погода в Верхней Гутаре (Иркутская область, Россия) (152 км)
Погода в Калтуке (Иркутская область, Россия) (191 км)
Погода в Зиме (Иркутская область, Россия) (219 км)
Погода в Сараме (Иркутская область, Россия) (221 км)

Пояснения к столбцам:

Ветер - указаны скорость ветра в м/с - средняя за 10 мин, порывы в срок и между сроками (в фигурных скобках) и направление, откуда дует ветер: С - северный, СВ - северо-восточный, В - восточный, ЮВ - юго-восточный, Ю - южный, ЮЗ - юго-западный, З - западный, СЗ - северо-западный.
Видимость - горизонтальная дальность видимости в метрах или километрах. При видимости от 1 до 10 км при отсутствии осадков обычно наблюдается дымка, при ухудшении видимости до 1 км и менее - туман. В сухую погоду видимость может ухудшаться дымом, пылью или мглою.
Явления - указаны атмосферные явления, наблюдавшиеся в срок или в последний час перед сроком; фигурными скобками обозначены явления, наблюдавшиеся между сроками (за 1-3 часа до срока); квадратными скобками обозначены град или гололедные отложения с указанием их диаметра в мм.
Облачность - указаны через наклонную черту общая и нижняя облачность в баллах и высота нижней границы облаков в метрах; квадратными скобками обозначены формы облаков: Ci - перистые, Cs - перисто-слоистые, Cc - перисто-кучевые, Ac - высококучевые, As - высокослоистые, Sc - слоисто-кучевые, Ns - слоисто-дождевые, Cu - кучевые, Cb - кучево-дождевые. Подробнее классификацию облаков см. в Атласе облаков (PDF).
T - Температура воздуха - температура, измеренная на высоте 2 м над землей.
Td - Температура точки росы - температура, при понижении до которой содержащийся в воздухе водяной пар достигнет насыщения.
f - Относительная влажность воздуха - влажноcть воздуха, измеренная на высоте 2 м над землей.
Te - Эффективная температура - температура, которую ощущает одетый по сезону человек в тени. Характеристика душности погоды. При расчете учитывается влияние влажности воздуха и скорости ветра на теплоощущения человека.
Tes - Эффективная температура на солнце - температура, которую ощущает человек, с поправкой на солнечный нагрев. Характеристика знойности погоды. Зависит от высоты солнца над горизонтом, облачности и скорости ветра. Ночью, в пасмурную погоду, а также при ветре 12 м/с и более поправка равна нулю.
P - Атмосферное давление - приведенное к уровню моря атмосферное давление.
Po - Атмосферное давление - измеренное на уровне метеостанции атмосферное давление.
Tmin - Минимальная температура - минимум температуры воздуха на высоте 2 м над землей.
Tmax - Максимальная температура - максимум температуры воздуха на высоте 2 м над землей.
R - Количество осадков - Количество выпавших осадков за период времени, мм. При наведении курсора мыши на число - период времени, за который выпало указанное количество осадков.
R24 - Количество осадков - Количество выпавших осадков за 24 часа, мм.
S - Снежный покров - Высота снежного покрова, см. При наведении курсора мыши на число - состояние снежного покрова и степень покрытия местности в баллах.